TimeCDT,TemperatureF,Dew PointF,Humidity,Sea Level PressureIn,VisibilityMPH,Wind Direction,Wind SpeedMPH,Gust SpeedMPH,PrecipitationIn,Events,Conditions,WindDirDegrees,DateUTC
12:32 AM,62.6,60.8,94,29.74,3.0,SSW,10.4,-,0.11,Rain,Rain,200,2013-03-10 06:32:00
12:53 AM,63.0,60.1,90,29.73,4.0,SSW,11.5,-,0.14,Rain,Rain,200,2013-03-10 06:53:00
1:33 AM,62.6,60.8,94,29.73,2.5,SSE,10.4,-,0.06,Rain,Heavy Rain,150,2013-03-10 07:33:00
1:53 AM,63.0,61.0,93,29.72,2.5,South,18.4,35.7,0.14,Rain,Rain,190,2013-03-10 07:53:00
3:03 AM,62.6,57.2,82,29.76,2.5,West,13.8,31.1,0.06,Rain,Heavy Rain,260,2013-03-10 08:03:00
3:12 AM,59.0,55.4,88,29.76,2.0,West,10.4,-,0.10,Rain,Rain,270,2013-03-10 08:12:00
3:20 AM,59.0,55.4,88,29.76,5.0,NW,13.8,-,0.11,Rain,Light Rain,310,2013-03-10 08:20:00
3:31 AM,57.2,55.4,94,29.77,2.5,NW,13.8,-,0.14,Rain,Heavy Rain,320,2013-03-10 08:31:00
3:43 AM,57.2,53.6,88,29.76,5.0,NNW,12.7,-,0.16,Rain,Light Rain,330,2013-03-10 08:43:00
3:53 AM,55.9,53.1,90,29.74,8.0,NNW,9.2,-,0.16,Rain,Light Rain,340,2013-03-10 08:53:00
4:53 AM,55.0,51.1,86,29.77,7.0,North,9.2,16.1,0.02,Rain,Light Rain,350,2013-03-10 09:53:00
5:53 AM,55.0,51.1,86,29.79,9.0,NNW,5.8,-,0.01,Rain,Light Rain,330,2013-03-10 10:53:00
7:53 AM,54.0,51.1,90,29.79,7.0,Calm,Calm,-,0.00,Rain,Light Rain,0,2013-03-10 12:53:00
8:53 AM,52.0,42.1,69,29.82,10.0,NW,13.8,29.9,0.01,Rain,Light Rain,320,2013-03-10 13:53:00
9:53 AM,51.1,37.0,59,29.86,10.0,WNW,19.6,24.2,0.00,,Overcast,300,2013-03-10 14:53:00
10:53 AM,51.1,34.0,52,29.89,10.0,WNW,19.6,32.2,N/A,,Mostly Cloudy,290,2013-03-10 15:53:00
11:53 AM,54.0,35.1,49,29.92,10.0,WNW,19.6,31.1,N/A,,Clear,290,2013-03-10 16:53:00
12:53 PM,55.0,35.1,47,29.94,10.0,WNW,20.7,26.5,N/A,,Mostly Cloudy,300,2013-03-10 17:53:00
1:53 PM,53.1,34.0,48,29.94,10.0,NW,18.4,26.5,N/A,,Scattered Clouds,310,2013-03-10 18:53:00
2:53 PM,52.0,34.0,50,29.95,10.0,WNW,21.9,28.8,N/A,,Overcast,300,2013-03-10 19:53:00
3:53 PM,52.0,33.1,49,29.96,10.0,NW,16.1,27.6,N/A,,Overcast,310,2013-03-10 20:53:00
4:53 PM,51.1,32.0,48,29.98,10.0,WNW,16.1,24.2,N/A,,Overcast,300,2013-03-10 21:53:00
5:53 PM,50.0,33.1,52,29.98,10.0,NW,11.5,-,N/A,,Overcast,320,2013-03-10 22:53:00
6:53 PM,48.9,30.9,50,30.00,10.0,NW,19.6,24.2,N/A,,Overcast,320,2013-03-10 23:53:00
7:53 PM,46.9,28.9,50,30.04,10.0,NW,13.8,24.2,N/A,,Overcast,320,2013-03-11 00:53:00
8:53 PM,45.0,28.0,52,30.07,10.0,NW,9.2,-,N/A,,Clear,320,2013-03-11 01:53:00
9:53 PM,41.0,28.9,62,30.09,10.0,NW,4.6,-,N/A,,Clear,310,2013-03-11 02:53:00
10:53 PM,39.9,30.0,68,30.09,10.0,WNW,3.5,-,N/A,,Clear,300,2013-03-11 03:53:00
11:53 PM,41.0,30.0,65,30.05,10.0,NW,8.1,-,N/A,,Clear,320,2013-03-11 04:53:00
12:53 AM,39.0,28.9,67,30.07,10.0,NW,6.9,-,N/A,,Clear,320,2013-03-11 05:53:00